Location: Newark
(40.3500°N, 15.2333°E)
Time: 05:19:12
(UTC+00:00)

Altair - Pass Details

Date: 22 January 2020
Orbit: 1502 x 1682 km, 47.2° (Epoch: 25 February)

Event Time Altitude Azimuth Distance (km) Brightness Sun altitude
Rises 06:58:16 0° 209° (SSW) 4,850 10.2 6.1°
Reaches altitude 10° 07:01:33 10° 203° (SSW) 3,885 9.8 6.6°
Maximum altitude 07:10:48 45° 135° (SE) 2,176 9.3 8.1°
Drops below altitude 10° 07:20:12 10° 67° (ENE) 3,947 10.2 9.5°
Sets 07:23:33 0° 62° (ENE) 4,932 10.5 10.0°
